| time (UTC) | temp F | wind direction | speed MPH | gust MPH | rain 1hr in | rain 24hr in | rain mn in | humidity % | barometer mb |
| 20260505054557 | 68 | 0 | 0.0 | 0.0 | 0.00 | 0.00 | 0.00 | 77 | 1002.6 |
| 20260505054029 | 68 | 0 | 0.0 | 0.0 | 0.00 | 0.00 | 0.00 | 77 | 1002.2 |
| 20260505053529 | 67 | 0 | 0.0 | 0.0 | 0.00 | 0.00 | 0.00 | 76 | 1002.1 |
| 20260505053051 | 67 | 0 | 0.0 | 0.0 | 0.00 | 0.00 | 0.00 | 78 | 1002.2 |
| 20260505052529 | 68 | 0 | 0.0 | 0.0 | 0.00 | 0.00 | 0.00 | 78 | 1002.3 |
| 20260505052026 | 68 | 0 | 0.0 | 0.0 | 0.00 | 0.00 | 0.00 | 78 | 1002.3 |
| 20260505051541 | 68 | 0 | 0.0 | 0.0 | 0.00 | 0.00 | 0.00 | 77 | 1002.1 |
| 20260505051029 | 68 | 0 | 0.0 | 0.0 | 0.00 | 0.00 | 0.00 | 78 | 1001.9 |
| 20260505050533 | 68 | 0 | 0.0 | 0.0 | 0.00 | 0.00 | 0.00 | 78 | 1001.9 |
| 20260505041600 | 70 | 0 | 0.0 | 0.0 | 0.00 | 0.00 | 0.00 | 73 | 1001.7 |
| 20260505041029 | 70 | 0 | 0.0 | 0.0 | 0.00 | 0.00 | 0.00 | 73 | 1001.8 |
| 20260505040529 | 71 | 0 | 0.0 | 0.0 | 0.00 | 0.00 | 0.00 | 72 | 1001.8 |
| 20260505040042 | 71 | 0 | 0.0 | 0.0 | 0.00 | 0.00 | 0.00 | 72 | 1001.7 |
| 20260505035529 | 71 | 0 | 0.0 | 1.0 | 0.00 | 0.00 | 0.00 | 71 | 1001.4 |
| 20260505035029 | 71 | 0 | 0.0 | 1.0 | 0.00 | 0.00 | 0.00 | 71 | 1001.5 |
| 20260505034545 | 72 | 0 | 0.0 | 1.0 | 0.00 | 0.00 | 0.00 | 70 | 1001.6 |
| 20260505034029 | 72 | 0 | 0.0 | 1.0 | 0.00 | 0.00 | 0.00 | 70 | 1001.9 |
| 20260505033531 | 72 | 0 | 0.0 | 1.0 | 0.00 | 0.00 | 0.00 | 69 | 1002.0 |
| 20260505033043 | 72 | 0 | 0.0 | 0.0 | 0.00 | 0.00 | 0.00 | 69 | 1001.9 |
| 20260505032529 | 72 | 0 | 0.0 | 0.0 | 0.00 | 0.00 | 0.00 | 69 | 1002.1 |
| 20260505032033 | 73 | 0 | 0.0 | 1.0 | 0.00 | 0.00 | 0.00 | 68 | 1002.1 |
| 20260505031541 | 73 | 0 | 0.0 | 1.0 | 0.00 | 0.00 | 0.00 | 68 | 1002.1 |
| 20260505031029 | 73 | 0 | 0.0 | 8.0 | 0.00 | 0.00 | 0.00 | 67 | 1002.3 |
| 20260505030530 | 73 | 0 | 0.0 | 8.0 | 0.00 | 0.00 | 0.00 | 67 | 1002.4 |
| 20260505030044 | 73 | 0 | 0.0 | 2.0 | 0.00 | 0.00 | 0.00 | 67 | 1002.4 |
| 20260505025530 | 73 | 0 | 0.0 | 2.0 | 0.00 | 0.00 | 0.00 | 66 | 1002.3 |
| 20260505025029 | 73 | 0 | 0.0 | 2.0 | 0.00 | 0.00 | 0.00 | 66 | 1002.1 |
| 20260505024547 | 73 | 136 | 0.0 | 2.0 | 0.00 | 0.00 | 0.00 | 66 | 1002.1 |
| 20260505024030 | 73 | 0 | 0.0 | 0.0 | 0.00 | 0.00 | 0.00 | 65 | 1002.2 |
| 20260505023530 | 73 | 0 | 0.0 | 0.0 | 0.00 | 0.00 | 0.00 | 65 | 1002.0 |
| 20260505023048 | 73 | 0 | 0.0 | 0.0 | 0.00 | 0.00 | 0.00 | 65 | 1002.3 |
| 20260505022532 | 74 | 0 | 0.0 | 0.0 | 0.00 | 0.00 | 0.00 | 64 | 1002.3 |
| 20260505022031 | 74 | 0 | 0.0 | 0.0 | 0.00 | 0.00 | 0.00 | 64 | 1002.4 |
| 20260505021547 | 74 | 0 | 0.0 | 1.0 | 0.00 | 0.00 | 0.00 | 63 | 1002.3 |
| 20260505021030 | 74 | 0 | 0.0 | 1.0 | 0.00 | 0.00 | 0.00 | 63 | 1002.1 |
| 20260505020529 | 74 | 0 | 0.0 | 0.0 | 0.00 | 0.00 | 0.00 | 62 | 1001.9 |
| 20260505020043 | 74 | 0 | 0.0 | 3.0 | 0.00 | 0.00 | 0.00 | 62 | 1001.7 |
| 20260505015530 | 74 | 0 | 0.0 | 3.0 | 0.00 | 0.00 | 0.00 | 61 | 1001.8 |
| 20260505015033 | 74 | 0 | 0.0 | 3.0 | 0.00 | 0.00 | 0.00 | 61 | 1001.4 |
| 20260505014545 | 74 | 0 | 0.0 | 3.0 | 0.00 | 0.00 | 0.00 | 60 | 1001.5 |
| 20260505014030 | 75 | 0 | 0.0 | 3.0 | 0.00 | 0.00 | 0.00 | 60 | 1001.4 |
| 20260505013532 | 75 | 0 | 0.0 | 2.0 | 0.00 | 0.00 | 0.00 | 60 | 1001.4 |
| 20260505013045 | 75 | 0 | 0.0 | 2.0 | 0.00 | 0.00 | 0.00 | 59 | 1001.1 |
| 20260505012530 | 75 | 0 | 0.0 | 2.0 | 0.00 | 0.00 | 0.00 | 58 | 1001.1 |
| 20260505012030 | 75 | 0 | 0.0 | 0.0 | 0.00 | 0.00 | 0.00 | 58 | 1000.9 |
| 20260505011543 | 75 | 0 | 0.0 | 0.0 | 0.00 | 0.00 | 0.00 | 57 | 1000.9 |
| 20260505011029 | 76 | 0 | 0.0 | 0.0 | 0.00 | 0.00 | 0.00 | 57 | 1001.0 |
| 20260505010529 | 76 | 0 | 0.0 | 0.0 | 0.00 | 0.00 | 0.00 | 56 | 1000.9 |
| 20260505010045 | 76 | 0 | 0.0 | 0.0 | 0.00 | 0.00 | 0.00 | 56 | 1000.9 |
| 20260505005530 | 76 | 0 | 0.0 | 0.0 | 0.00 | 0.00 | 0.00 | 55 | 1000.9 |
| 20260505005030 | 76 | 0 | 0.0 | 0.0 | 0.00 | 0.00 | 0.00 | 55 | 1000.9 |
| 20260505004545 | 77 | 0 | 0.0 | 0.0 | 0.00 | 0.00 | 0.00 | 54 | 1001.0 |
| 20260505004029 | 77 | 0 | 0.0 | 1.0 | 0.00 | 0.00 | 0.00 | 53 | 1001.0 |
| 20260505003530 | 77 | 0 | 0.0 | 1.0 | 0.00 | 0.00 | 0.00 | 53 | 1001.0 |
| 20260505003042 | 77 | 0 | 0.0 | 1.0 | 0.00 | 0.00 | 0.00 | 53 | 1001.0 |
| 20260505002533 | 78 | 0 | 0.0 | 0.0 | 0.00 | 0.00 | 0.00 | 52 | 1001.2 |
| 20260505002029 | 78 | 0 | 0.0 | 2.0 | 0.00 | 0.00 | 0.00 | 52 | 1001.2 |
| 20260505001549 | 78 | 0 | 0.0 | 3.0 | 0.00 | 0.00 | 0.00 | 51 | 1001.3 |
| 20260505001029 | 78 | 0 | 0.0 | 3.0 | 0.00 | 0.00 | 0.00 | 51 | 1001.3 |
| 20260505000529 | 78 | 0 | 0.0 | 1.0 | 0.00 | 0.00 | 0.00 | 51 | 1001.2 |
| 20260505000054 | 79 | 0 | 0.0 | 1.0 | 0.00 | 0.00 | 0.00 | 50 | 1001.3 |
| 20260504235530 | 79 | 0 | 0.0 | 2.0 | 0.00 | 0.00 | 0.00 | 49 | 1001.3 |
| 20260504235030 | 79 | 0 | 0.0 | 3.0 | 0.00 | 0.00 | 0.00 | 49 | 1001.4 |
| 20260504234546 | 79 | 0 | 0.0 | 3.0 | 0.00 | 0.00 | 0.00 | 48 | 1001.4 |
| 20260504234029 | 79 | 0 | 0.0 | 4.0 | 0.00 | 0.00 | 0.00 | 48 | 1001.3 |
| 20260504233529 | 80 | 0 | 0.0 | 4.0 | 0.00 | 0.00 | 0.00 | 47 | 1001.3 |
| 20260504233041 | 80 | 0 | 0.0 | 3.0 | 0.00 | 0.00 | 0.00 | 47 | 1001.3 |
| 20260504232530 | 80 | 0 | 0.0 | 2.0 | 0.00 | 0.00 | 0.00 | 47 | 1001.5 |
| 20260504232031 | 80 | 0 | 0.0 | 2.0 | 0.00 | 0.00 | 0.00 | 46 | 1001.5 |
| 20260504231555 | 81 | 0 | 0.0 | 2.0 | 0.00 | 0.00 | 0.00 | 45 | 1001.4 |
| 20260504231031 | 81 | 0 | 0.0 | 1.0 | 0.00 | 0.00 | 0.00 | 45 | 1001.4 |
| 20260504230530 | 81 | 0 | 0.0 | 1.0 | 0.00 | 0.00 | 0.00 | 45 | 1001.4 |
| 20260504230041 | 81 | 0 | 0.0 | 1.0 | 0.00 | 0.00 | 0.00 | 44 | 1001.4 |
| 20260504225531 | 82 | 0 | 0.0 | 1.0 | 0.00 | 0.00 | 0.00 | 45 | 1001.4 |
| 20260504225029 | 82 | 0 | 0.0 | 3.0 | 0.00 | 0.00 | 0.00 | 44 | 1001.4 |
| 20260504224543 | 82 | 0 | 0.0 | 3.0 | 0.00 | 0.00 | 0.00 | 43 | 1001.4 |
| 20260504224032 | 82 | 0 | 0.0 | 2.0 | 0.00 | 0.00 | 0.00 | 43 | 1001.4 |
| 20260504223534 | 82 | 0 | 0.0 | 3.0 | 0.00 | 0.00 | 0.00 | 44 | 1001.3 |
| 20260504223046 | 82 | 0 | 0.0 | 6.0 | 0.00 | 0.00 | 0.00 | 43 | 1001.4 |
| 20260504222530 | 82 | 0 | 0.0 | 6.0 | 0.00 | 0.00 | 0.00 | 44 | 1001.3 |
| 20260504222029 | 82 | 0 | 0.0 | 6.0 | 0.00 | 0.00 | 0.00 | 42 | 1001.3 |
| 20260504221551 | 83 | 0 | 0.0 | 1.0 | 0.00 | 0.00 | 0.00 | 42 | 1001.3 |
| 20260504221029 | 83 | 158 | 0.0 | 3.0 | 0.00 | 0.00 | 0.00 | 42 | 1001.3 |
| 20260504220529 | 83 | 202 | 0.0 | 3.0 | 0.00 | 0.00 | 0.00 | 43 | 1001.4 |
| 20260504220042 | 83 | 0 | 0.0 | 4.0 | 0.00 | 0.00 | 0.00 | 42 | 1001.4 |
| 20260504215529 | 83 | 0 | 0.0 | 4.0 | 0.00 | 0.00 | 0.00 | 42 | 1001.4 |
| 20260504215036 | 83 | 0 | 0.0 | 4.0 | 0.00 | 0.00 | 0.00 | 41 | 1001.4 |
| 20260504214545 | 83 | 0 | 0.0 | 3.0 | 0.00 | 0.00 | 0.00 | 41 | 1001.5 |
| 20260504214033 | 84 | 0 | 0.0 | 3.0 | 0.00 | 0.00 | 0.00 | 41 | 1001.5 |
| 20260504213530 | 84 | 0 | 0.0 | 3.0 | 0.00 | 0.00 | 0.00 | 40 | 1001.5 |
| 20260504213044 | 85 | 0 | 0.0 | 4.0 | 0.00 | 0.00 | 0.00 | 40 | 1001.4 |
| 20260504212532 | 86 | 212 | 0.0 | 4.0 | 0.00 | 0.00 | 0.00 | 39 | 1001.5 |
| 20260504212031 | 86 | 0 | 0.0 | 4.0 | 0.00 | 0.00 | 0.00 | 38 | 1001.5 |
| 20260504211550 | 86 | 0 | 0.0 | 3.0 | 0.00 | 0.00 | 0.00 | 39 | 1001.7 |
| 20260504211031 | 87 | 0 | 0.0 | 3.0 | 0.00 | 0.00 | 0.00 | 38 | 1001.7 |
| 20260504210529 | 87 | 229 | 0.0 | 2.0 | 0.00 | 0.00 | 0.00 | 39 | 1001.7 |
| 20260504210105 | 86 | 0 | 0.0 | 4.0 | 0.00 | 0.00 | 0.00 | 39 | 1001.7 |
| 20260504205530 | 87 | 0 | 0.0 | 4.0 | 0.00 | 0.00 | 0.00 | 39 | 1001.8 |
| 20260504205032 | 87 | 0 | 0.0 | 3.0 | 0.00 | 0.00 | 0.00 | 38 | 1001.8 |
| 20260504204548 | 87 | 212 | 0.0 | 4.0 | 0.00 | 0.00 | 0.00 | 38 | 1001.9 |
| 20260504204030 | 87 | 0 | 0.0 | 4.0 | 0.00 | 0.00 | 0.00 | 38 | 1002.0 |
| 20260504203530 | 87 | 0 | 0.0 | 3.0 | 0.00 | 0.00 | 0.00 | 36 | 1002.1 |
| 20260504203046 | 86 | 0 | 0.0 | 3.0 | 0.00 | 0.00 | 0.00 | 36 | 1002.1 |
| 20260504202530 | 86 | 0 | 0.0 | 3.0 | 0.00 | 0.00 | 0.00 | 37 | 1002.1 |
| 20260504202029 | 87 | 0 | 0.0 | 2.0 | 0.00 | 0.00 | 0.00 | 35 | 1002.2 |
| 20260504201549 | 87 | 0 | 0.0 | 0.0 | 0.00 | 0.00 | 0.00 | 36 | 1002.3 |
| 20260504201029 | 87 | 0 | 0.0 | 4.0 | 0.00 | 0.00 | 0.00 | 35 | 1002.3 |
| 20260504200531 | 86 | 0 | 0.0 | 4.0 | 0.00 | 0.00 | 0.00 | 36 | 1002.5 |
| 20260504200046 | 86 | 0 | 0.0 | 4.0 | 0.00 | 0.00 | 0.00 | 38 | 1002.4 |
| 20260504195529 | 86 | 0 | 0.0 | 4.0 | 0.00 | 0.00 | 0.00 | 36 | 1002.6 |
| 20260504195029 | 87 | 0 | 0.0 | 1.0 | 0.00 | 0.00 | 0.00 | 36 | 1002.7 |
| 20260504194600 | 87 | 0 | 0.0 | 1.0 | 0.00 | 0.00 | 0.00 | 36 | 1002.7 |
| 20260504194030 | 87 | 198 | 0.0 | 0.0 | 0.00 | 0.00 | 0.00 | 36 | 1002.9 |
| 20260504193529 | 86 | 0 | 0.0 | 0.0 | 0.00 | 0.00 | 0.00 | 37 | 1003.0 |
| 20260504193042 | 86 | 0 | 0.0 | 0.0 | 0.00 | 0.00 | 0.00 | 37 | 1003.1 |
| 20260504192530 | 86 | 0 | 0.0 | 0.0 | 0.00 | 0.00 | 0.00 | 36 | 1003.1 |
| 20260504192032 | 86 | 0 | 0.0 | 1.0 | 0.00 | 0.00 | 0.00 | 36 | 1003.1 |
| 20260504191547 | 85 | 0 | 0.0 | 1.0 | 0.00 | 0.00 | 0.00 | 37 | 1003.2 |
| 20260504191031 | 85 | 0 | 0.0 | 0.0 | 0.00 | 0.00 | 0.00 | 37 | 1003.2 |
| 20260504190532 | 85 | 0 | 0.0 | 0.0 | 0.00 | 0.00 | 0.00 | 39 | 1003.3 |
| 20260504185532 | 83 | 0 | 0.0 | 0.0 | 0.00 | 0.00 | 0.00 | 40 | 1003.4 |
| 20260504185035 | 83 | 0 | 0.0 | 4.0 | 0.00 | 0.00 | 0.00 | 39 | 1003.4 |
| 20260504184555 | 84 | 0 | 0.0 | 4.0 | 0.00 | 0.00 | 0.00 | 37 | 1003.4 |
| 20260504184030 | 85 | 0 | 0.0 | 1.0 | 0.00 | 0.00 | 0.00 | 38 | 1003.5 |
| 20260504183533 | 84 | 0 | 0.0 | 1.0 | 0.00 | 0.00 | 0.00 | 39 | 1003.5 |
| 20260504183044 | 84 | 0 | 0.0 | 1.0 | 0.00 | 0.00 | 0.00 | 39 | 1003.5 |
| 20260504182530 | 83 | 0 | 0.0 | 1.0 | 0.00 | 0.00 | 0.00 | 40 | 1003.6 |
| 20260504182030 | 83 | 0 | 0.0 | 0.0 | 0.00 | 0.00 | 0.00 | 40 | 1003.6 |
| 20260504181547 | 83 | 0 | 0.0 | 0.0 | 0.00 | 0.00 | 0.00 | 39 | 1003.6 |
| 20260504181030 | 83 | 0 | 0.0 | 0.0 | 0.00 | 0.00 | 0.00 | 41 | 1003.8 |
| 20260504180530 | 82 | 0 | 0.0 | 0.0 | 0.00 | 0.00 | 0.00 | 40 | 1003.7 |
| 20260504180114 | 82 | 0 | 0.0 | 0.0 | 0.00 | 0.00 | 0.00 | 42 | 1003.9 |
| 20260504175530 | 81 | 0 | 0.0 | 0.0 | 0.00 | 0.00 | 0.00 | 41 | 1003.8 |
| 20260504175033 | 80 | 0 | 0.0 | 3.0 | 0.00 | 0.00 | 0.00 | 43 | 1003.9 |
| 20260504174549 | 80 | 0 | 0.0 | 3.0 | 0.00 | 0.00 | 0.00 | 41 | 1003.9 |
| 20260504174030 | 80 | 226 | 0.0 | 2.0 | 0.00 | 0.00 | 0.00 | 42 | 1003.9 |
| 20260504173530 | 80 | 0 | 0.0 | 2.0 | 0.00 | 0.00 | 0.00 | 44 | 1004.0 |
| 20260504173057 | 80 | 226 | 0.0 | 1.0 | 0.00 | 0.00 | 0.00 | 43 | 1004.0 |
| 20260504172532 | 79 | 0 | 0.0 | 1.0 | 0.00 | 0.00 | 0.00 | 43 | 1004.1 |
| 20260504172029 | 79 | 0 | 0.0 | 1.0 | 0.00 | 0.00 | 0.00 | 43 | 1004.3 |
| 20260504171551 | 79 | 0 | 0.0 | 1.0 | 0.00 | 0.00 | 0.00 | 43 | 1004.0 |
| 20260504171030 | 79 | 0 | 0.0 | 1.0 | 0.00 | 0.00 | 0.00 | 45 | 1004.0 |
| 20260504170532 | 78 | 0 | 0.0 | 1.0 | 0.00 | 0.00 | 0.00 | 45 | 1003.9 |
| 20260504151032 | 70 | 0 | 0.0 | 10.0 | 0.00 | 0.00 | 0.00 | 54 | 1004.2 |
| 20260504150529 | 70 | 0 | 0.0 | 10.0 | 0.00 | 0.00 | 0.00 | 53 | 1004.3 |
| 20260504141032 | 68 | 207 | 0.0 | 4.0 | 0.00 | 0.00 | 0.00 | 53 | 1004.4 |
| 20260504140529 | 68 | 0 | 0.0 | 8.0 | 0.00 | 0.00 | 0.00 | 54 | 1004.4 |
| 20260504130530 | 65 | 0 | 0.0 | 9.0 | 0.00 | 0.00 | 0.00 | 56 | 1004.3 |
| 20260504120108 | 63 | 0 | 0.0 | 5.0 | 0.00 | 0.00 | 0.00 | 58 | 1004.3 |
| 20260504110529 | 63 | 0 | 0.0 | 4.0 | 0.00 | 0.00 | 0.00 | 56 | 1004.5 |
| 20260504100529 | 65 | 0 | 0.0 | 3.0 | 0.00 | 0.00 | 0.00 | 52 | 1004.9 |
| 20260504081544 | 67 | 146 | 0.0 | 8.0 | 0.00 | 0.00 | 0.00 | 48 | 1005.7 |
| 20260504081033 | 67 | 0 | 0.0 | 3.0 | 0.00 | 0.00 | 0.00 | 48 | 1005.7 |
| 20260504080529 | 67 | 221 | 0.0 | 3.0 | 0.00 | 0.00 | 0.00 | 48 | 1005.8 |